Simultaneous Nadir Overpasses (SNOs) Predictions

Prediction of SNOs over PacNW region [( 10.00, 139.50) to ( 22.70, 165.60)] between AQUA and NPP Satellites:

Table of predicted SNOs over PacNW region for the next 30.0 days since TLE Epoch: 2/6/2021
Index Date (AQUA) Time (AQUA) AQUA Lat,Lon Date (NPP) Time (NPP) NPP Lat,Lon Distance(km) Time Diff (sec)
1 02/12/2021 15:09:52 22.58, 159.84 02/12/2021 15:10:39 23.17, 157.23 274.29 47
2 02/15/2021 03:31:42 22.66, 147.52 02/15/2021 03:28:13 27.31, 144.58 596.31 209
3 02/20/2021 15:59:20 22.59, 147.48 02/20/2021 16:01:23 23.23, 144.56 307.07 123
4 02/28/2021 15:09:53 22.60, 159.85 02/28/2021 15:10:38 23.16, 157.23 275.11 45
